Starlink 31885

operational
NORAD ID: 59660 Int'l Des: 2024-084 Owner: SPXS Country: US Constellation: starlink
LEOCIRCULAR

Über Starlink 31885

Beschreibung wird geladen...

Live-Position

3D-Globus wird geladen...

Nächste Überflüge

Höhenverlauf

Altitude vs Time

uPlot chart will show altitude changes over time

Zweizeiliger Elementsatz

1 59660U 24084G 25260.16033796 -.00001780 00000-0 -55173-4 0 9997
2 59660 43.0033 298.3794 0001479 284.6312 75.4376 15.27576906 77879
Epoch: 17. Sept. 2025 • Age: 7 hours

Aktueller Status

Höhe 486.0 km
Geschwindigkeit 7.62 km/s
Subsatellitenpunkt -15.55°S, 27.83°W
Startdatum 6. Mai 2024
Alter 1.3 years
Typ internet

Technische Details

Klassifizierung Payload
Masse 730.00 kg
Trockenmasse 700.00 kg
Gesamtmasse 730.00 kg
Länge 0.30 m
Durchmesser 4.10 m
Spannweite 29.00 m
Form Box + pan
Hersteller SPXS
Bus-Typ Starlink V2M
Phasenstatus In Orbit
Besitzer/Staat SPXS/US

Große Konstellationen

Loading constellations...